Flag for India Past Weather in Thiruvananthapuram, Kerala, India — Yesterday and Last 2 Weeks

Now
79 °F

Broken clouds.


Feels Like: 81 °F
Forecast: 76 / 83 °F
Wind: 5 mph from Northwest

Location: Thiruvananthapuram

Current Time: Aug 27, 2016 at 8:51:44 AM

Latest Report: Aug 27, 2016 at 8:00 AM


Visibility: 1 mi

Pressure: 29.80 "Hg

Humidity: 74%

Dew Point: 70 °F

Location of ThiruvananthapuramLocation

Past Weather in Thiruvananthapuram — Graph

°F

Thiruvananthapuram Temperature Yesterday

Maximum temperature yesterday: 84 °F (at 10:30 AM)
Minimum temperature yesterday: 77 °F (at 12:00 AM)
Average temperature yesterday: 80 °F

High & Low Weather Summary for the Past Weeks

 TemperatureHumidityPressure
High90 °F (Aug 12, 12:30 PM)94% (Aug 14, 4:30 AM)29.89 "Hg (Aug 14, 4:30 AM)
Low77 °F (Aug 14, 6:30 AM)62% (Aug 14, 4:00 PM)29.68 "Hg (Aug 20, 2:00 PM)
Average82 °F80%29.78 "Hg
* Reported Aug 12 7:30 AM — Aug 27 7:30 AM, Thiruvananthapuram, Weather by CustomWeather, © 2016

Note: Actual official high and low records may vary slightly from our data, if they occured in-between our weather recording intervals... More about our weather records

Advertising

Thiruvananthapuram Weather History for the Previous 24 Hours

Scroll right to see more
 ConditionsComfort  
Time TempWeatherWind HumidityBarometerVisibility
7:30 AM
Sat, Aug 27
79 °FBroken clouds.3 mph74%29.80 "Hg1 mi
7:00 AM79 °FPartly sunny.2 mph74%29.80 "Hg1 mi
6:30 AM79 °FPassing clouds.3 mph74%29.77 "Hg1 mi
6:00 AM77 °FPassing clouds.3 mph79%29.77 "Hg1 mi
5:30 AM79 °FPartly cloudy.3 mph74%29.77 "Hg2 mi
5:00 AM79 °FPartly cloudy.3 mph74%29.77 "Hg2 mi
4:30 AM77 °FPartly cloudy.5 mph79%29.74 "Hg2 mi
4:00 AM77 °FPartly cloudy.6 mph79%29.74 "Hg2 mi
3:30 AM77 °FPartly cloudy.7 mph79%29.74 "Hg2 mi
3:00 AM77 °FPartly cloudy.8 mph79%29.77 "Hg2 mi
2:30 AM77 °FPartly cloudy.7 mph79%29.77 "Hg2 mi
2:00 AM77 °FLight rain. Partly cloudy.9 mph79%29.77 "Hg2 mi
1:30 AM79 °FPartly cloudy.3 mph74%29.80 "Hg2 mi
1:00 AM79 °FLight rain. Mostly cloudy.3 mph79%29.80 "Hg2 mi
12:00 AM81 °FMostly cloudy.5 mph74%29.83 "Hg2 mi
11:00 PM
Fri, Aug 26
81 °FMostly cloudy.5 mph74%29.83 "Hg2 mi
10:30 PM81 °FMostly cloudy.6 mph74%29.83 "Hg2 mi
10:00 PM81 °FPartly cloudy.5 mph74%29.83 "Hg2 mi
9:30 PM81 °FPartly cloudy.6 mph74%29.83 "Hg2 mi
9:00 PM81 °FPartly cloudy.6 mph74%29.83 "Hg2 mi
8:30 PM81 °FPartly cloudy.6 mph74%29.83 "Hg2 mi
8:00 PM81 °FPartly cloudy.6 mph74%29.80 "Hg2 mi
7:30 PM81 °FPartly cloudy.7 mph74%29.80 "Hg2 mi
7:00 PM81 °FBroken clouds.10 mph74%29.80 "Hg2 mi
6:30 PM81 °FBroken clouds.10 mph74%29.77 "Hg2 mi
6:00 PM81 °FBroken clouds.10 mph74%29.77 "Hg2 mi
5:30 PM82 °FBroken clouds.12 mph74%29.77 "Hg2 mi
5:00 PM81 °FBroken clouds.13 mph79%29.74 "Hg2 mi
4:30 PM81 °FBroken clouds.12 mph79%29.74 "Hg3 mi
4:00 PM81 °FBroken clouds.10 mph79%29.74 "Hg3 mi
3:30 PM81 °FBroken clouds.13 mph79%29.74 "Hg3 mi
3:00 PM81 °FBroken clouds.12 mph79%29.77 "Hg3 mi
2:30 PM82 °FScattered clouds.12 mph79%29.77 "Hg3 mi
2:00 PM82 °FScattered clouds.12 mph79%29.77 "Hg3 mi
1:30 PM82 °FScattered clouds.13 mph79%29.77 "Hg3 mi
1:00 PM82 °FScattered clouds.12 mph79%29.77 "Hg4 mi
12:30 PM82 °FScattered clouds.12 mph79%29.80 "Hg4 mi
12:00 PM82 °FScattered clouds.14 mph79%29.80 "Hg4 mi
11:30 AM82 °FScattered clouds.12 mph79%29.80 "Hg4 mi
11:00 AM82 °FScattered clouds.12 mph74%29.80 "Hg3 mi
10:30 AM84 °FScattered clouds.12 mph74%29.80 "Hg3 mi
10:00 AM82 °FScattered clouds.12 mph74%29.80 "Hg3 mi
9:30 AM82 °FScattered clouds.12 mph74%29.83 "Hg2 mi
9:00 AM81 °FScattered clouds.10 mph74%29.83 "Hg2 mi
8:30 AM81 °FScattered clouds.8 mph74%29.83 "Hg2 mi
8:00 AM79 °FScattered clouds.7 mph74%29.80 "Hg2 mi
Weather by CustomWeather, © 2016

See weather overviewHow to use our weather pages